World > North America > United States > New York

Hourly Rensselaer County, NY Regional Weather

Feedback E-mail the Weather

Quick WX

Rensselaer County, NY Weather Maps

°F °C°F °C
Rensselaer County Weather Map
UTC Time: 7/4/2022, 09:33
Your Time:

Rensselaer County, NY Regional Weather

Expires:202207041000;;657941
ASUS41 KALY 040910
RWRALY

NEW YORK STATE HOURLY WEATHER ROUNDUP
NATIONAL WEATHER SERVICE ALBANY NY
500 AM EDT MON JUL 04 2022

NOTE: "FAIR" INDICATES FEW OR NO CLOUDS BELOW 12,000 FEET WITH NO
SIGNIFICANT WEATHER AND/OR NO OBSTRUCTIONS TO VISIBILITY.


NYZ032-033-038>043-046>054-057>066-NYZ062>081-082-084-041000-
EAST

  
CITY           SKY/WX    TMP DP  RH WIND       PRES   REMARKS
ALBANY         PTCLDY    60  49  66 S3        30.13S                  
GLENS FALLS    CLEAR     51  49  92 CALM      30.13R                  
POUGHKEEPSIE   CLEAR     54  51  90 N3        30.13S                  
NEWBURGH       CLEAR     55  52  88 CALM      30.14S                  
MONTGOMERY     CLEAR     50  48  93 CALM      30.14S                  
WHITE PLAINS   CLEAR     59  50  72 NW10      30.12R                  
ISLIP          CLEAR     62  52  69 N7        30.10R                  
NEW YORK CITY  PTCLDY    70  50  49 NW8       30.11R                  
CENTRAL PARK   CLEAR     67  47  48 CALM      30.15R                  
$$


SKY/WX - Weather  TMP - Temperature  DP - Dew Point  RH - Humidity
WIND - Wind Direction/Speed PRES - Barometric Pressure VSB - Visibility
WCI - Wind Chill Index E13G22 Wind - East Wind 13 mph/Gusts of 22 mph

Trending Headlines

Rensselaer County Radar Loop



Rensselaer County Quick Facts


National Two Day Weather Forecast


E-mail the Rensselaer County Weather Forecast

Voice your opinion or tell us about page issues...